Location: Bosler Junction
(41.5528°N, 105.6814°W)
Time: 01:50:14
(UTC+00:00)

ISS - Visible Passes

Search period start: 20 January 2022 00:00
Search period end: 30 January 2022 00:00
Orbit: 413 x 422 km, 51.6° (Epoch: 19 January)

Date Brightness Start Highest point End Pass type
(mag) Time Alt. Az. Time Alt. Az. Time Alt. Az.
20 Jan -3.3 01:45:49 10° WSW 01:49:04 52° NNW 01:49:26 49° N visible
21 Jan -3.8 00:57:51 10° SW 01:01:10 87° NW 01:03:41 17° NE visible
21 Jan -0.8 02:35:45 10° WNW 02:36:38 14° NW 02:36:38 14° NW visible
22 Jan -2.2 01:47:29 10° W 01:50:21 26° NNW 01:50:53 25° N visible
23 Jan -2.6 00:59:23 10° W 01:02:29 35° NNW 01:05:09 13° NE visible
23 Jan -0.6 02:37:55 10° NW 02:38:06 11° NW 02:38:06 11° NW visible
24 Jan -1.6 01:49:46 10° NW 01:52:05 17° NNW 01:52:24 17° N visible
25 Jan -1.8 01:01:40 10° WNW 01:04:15 20° NNW 01:06:45 11° NNE visible
26 Jan -1.4 01:52:13 10° NW 01:54:06 15° N 01:54:06 15° N visible
27 Jan -1.5 01:04:21 10° NW 01:06:26 15° N 01:08:31 10° NNE visible
28 Jan -1.5 01:54:25 10° NNW 01:56:03 15° N 01:56:03 15° N visible
29 Jan -1.6 01:06:59 10° NNW 01:08:58 15° N 01:10:41 11° NE visible
29 Jan -0.6 02:43:38 10° NW 02:43:40 10° NW 02:43:40 10° NW visible
